Lakeville, MN

12:39 AM CDT on April 23, 2017 (GMT -0500)
Airlake

Weather History for KLVN - June, 2013

Change the Weather History Date:

Sunday, June 2, 2013

  Actual Average Record
Temperature  
Mean Temperature 55 °F -  
Max Temperature 64 °F 75 °F 88 °F (1988)
Min Temperature 46 °F 50 °F 38 °F (1969)
Degree Days  
Heating Degree Days 10    
Growing Degree Days 5 (Base 50)    
Moisture  
Dew Point 41 °F    
Average Humidity 63    
Maximum Humidity 93    
Minimum Humidity 42    
Precipitation  
Precipitation 0.00 in - - ()
Sea Level Pressure  
Sea Level Pressure 30.02 in    
Wind  
Wind Speed 8 mph (NNW)    
Max Wind Speed 17 mph    
Max Gust Speed 23 mph    
Visibility 10 miles    
Events      
Averages and records for this station are not official NWS values.
T = Trace of Precipitation, MM = Missing Value Source: NWS Daily Summary

Daily Weather History Graph

Daily Weather History Graph

Search for Another Location

Airport or City:

Trip Planner

Search our weather history database for the weather conditions in past years. The results will help you decide how hot, cold, wet, or windy it might be!

Date:

Astronomy

Jun. 02, 2013 Rise Set
Actual Time 5:30 AM CDT 8:52 PM CDT
Civil Twilight 4:54 AM CDT 9:28 PM CDT
Nautical Twilight 4:07 AM CDT 10:15 PM CDT
Astronomical Twilight 3:07 AM CDT 11:15 PM CDT
Moon 2:10 AM CDT (6/2) 3:11 PM CDT (6/2)
Length of Visible Light 16h 34m
Length of Day
15h 22m
Waning Crescent, 30% of the Moon is Illuminated
Jun 2
Waning Crescent
Jun 8
New
Jun 16
First Quarter
Jun 23
Full
Jun 29
Last Quarter

Hourly Weather History & Observations

Time (CDT) Temp. Windchill Dew Point Humidity Pressure Visibility Wind Dir Wind Speed Gust Speed Precip Events Conditions
12:12 AM 50.0 °F - 42.8 °F 76% 29.94 in 10.0 mi North 9.2 mph - N/A   Overcast
12:33 AM 50.0 °F - 42.8 °F 76% 29.94 in 10.0 mi NNW 11.5 mph 19.6 mph N/A   Overcast
12:53 AM 50.0 °F - 42.8 °F 76% 29.95 in 10.0 mi North 8.1 mph - N/A   Overcast
1:12 AM 50.0 °F - 41.0 °F 71% 29.95 in 10.0 mi North 17.3 mph 23.0 mph N/A   Overcast
1:33 AM 48.2 °F - 41.0 °F 76% 29.96 in 10.0 mi North 9.2 mph - N/A   Overcast
1:52 AM 48.2 °F - 39.2 °F 71% 29.96 in 10.0 mi North 12.7 mph 20.7 mph N/A   Overcast
2:12 AM 48.2 °F - 39.2 °F 71% 29.97 in 10.0 mi North 11.5 mph 23.0 mph N/A   Overcast
2:33 AM 48.2 °F - 39.2 °F 71% 29.98 in 10.0 mi North 9.2 mph 18.4 mph N/A   Overcast
2:52 AM 48.2 °F - 39.2 °F 71% 29.98 in 10.0 mi North 6.9 mph - N/A   Overcast
3:12 AM 48.2 °F - 39.2 °F 71% 29.98 in 10.0 mi NNE 9.2 mph 17.3 mph N/A   Overcast
3:33 AM 48.2 °F - 39.2 °F 71% 29.98 in 10.0 mi NNE 9.2 mph - N/A   Overcast
3:52 AM 48.2 °F - 39.2 °F 71% 29.99 in 10.0 mi North 8.1 mph - N/A   Overcast
4:12 AM 48.2 °F - 41.0 °F 76% 29.99 in 10.0 mi North 5.8 mph - N/A   Overcast
4:33 AM 46.4 °F 43.5 °F 41.0 °F 81% 29.99 in 10.0 mi North 5.8 mph - N/A   Overcast
4:52 AM 48.2 °F - 42.8 °F 82% 30.00 in 10.0 mi North 5.8 mph - N/A   Overcast
5:12 AM 48.2 °F - 42.8 °F 82% 30.00 in 10.0 mi Calm Calm - N/A   Overcast
5:33 AM 48.2 °F - 41.0 °F 76% 30.01 in 10.0 mi North 11.5 mph - N/A   Overcast
5:52 AM 46.4 °F 41.1 °F 39.2 °F 76% 30.02 in 10.0 mi North 11.5 mph - N/A   Overcast
6:13 AM 46.4 °F 42.9 °F 41.0 °F 81% 30.02 in 10.0 mi North 6.9 mph - N/A   Overcast
6:33 AM 46.4 °F 42.9 °F 41.0 °F 81% 30.03 in 10.0 mi NNW 6.9 mph - N/A   Overcast
6:52 AM 46.4 °F 42.9 °F 41.0 °F 81% 30.04 in 10.0 mi North 6.9 mph - N/A   Overcast
7:12 AM 48.2 °F - 41.0 °F 76% 30.04 in 10.0 mi North 9.2 mph 17.3 mph N/A   Overcast
7:33 AM 48.2 °F - 41.0 °F 76% 30.05 in 10.0 mi NNW 8.1 mph - N/A   Overcast
7:52 AM 48.2 °F - 41.0 °F 76% 30.05 in 10.0 mi NNE 6.9 mph - N/A   Overcast
8:12 AM 48.2 °F - 39.2 °F 71% 30.06 in 10.0 mi NNE 10.4 mph - N/A   Mostly Cloudy
8:32 AM 48.2 °F - 39.2 °F 71% 30.07 in 10.0 mi North 11.5 mph - N/A   Scattered Clouds
8:52 AM 51.8 °F - 39.2 °F 62% 30.07 in 10.0 mi North 10.4 mph - N/A   Scattered Clouds
9:13 AM 51.8 °F - 39.2 °F 62% 30.07 in 10.0 mi NNW 11.5 mph - N/A   Scattered Clouds
9:32 AM 51.8 °F - 41.0 °F 67% 30.08 in 10.0 mi North 13.8 mph 18.4 mph N/A   Clear
9:52 AM 53.6 °F - 39.2 °F 58% 30.08 in 10.0 mi NNE 12.7 mph - N/A   Clear
10:13 AM 51.8 °F - 41.0 °F 67% 30.07 in 10.0 mi NNW 10.4 mph 16.1 mph N/A   Scattered Clouds
10:32 AM 53.6 °F - 41.0 °F 62% 30.08 in 10.0 mi North 8.1 mph 19.6 mph N/A   Scattered Clouds
10:52 AM 53.6 °F - 39.2 °F 58% 30.07 in 10.0 mi North 12.7 mph 19.6 mph N/A   Clear
11:13 AM 55.4 °F - 42.8 °F 63% 30.07 in 10.0 mi North 8.1 mph - N/A   Clear
11:32 AM 55.4 °F - 39.2 °F 54% 30.07 in 10.0 mi North 13.8 mph 18.4 mph N/A   Clear
11:52 AM 55.4 °F - 41.0 °F 58% 30.07 in 10.0 mi North 6.9 mph - N/A   Clear
12:13 PM 55.4 °F - 42.8 °F 63% 30.07 in 10.0 mi NNE 12.7 mph 17.3 mph N/A   Scattered Clouds
12:32 PM 57.2 °F - 41.0 °F 55% 30.07 in 10.0 mi NE 9.2 mph - N/A   Scattered Clouds
12:52 PM 57.2 °F - 41.0 °F 55% 30.07 in 10.0 mi NE 8.1 mph - N/A   Clear
1:13 PM 59.0 °F - 44.6 °F 59% 30.06 in 10.0 mi NNE 8.1 mph - N/A   Clear
1:32 PM 59.0 °F - 41.0 °F 51% 30.06 in 10.0 mi North 5.8 mph - N/A   Clear
1:52 PM 60.8 °F - 39.2 °F 45% 30.05 in 10.0 mi NW 9.2 mph - N/A   Clear
2:13 PM 60.8 °F - 39.2 °F 45% 30.05 in 10.0 mi NNW 6.9 mph - N/A   Clear
2:32 PM 60.8 °F - 41.0 °F 48% 30.05 in 10.0 mi North 8.1 mph - N/A   Clear
2:52 PM 62.6 °F - 42.8 °F 48% 30.04 in 10.0 mi NW 9.2 mph 17.3 mph N/A   Clear
3:12 PM 62.6 °F - 39.2 °F 42% 30.04 in 10.0 mi North 10.4 mph - N/A   Clear
3:32 PM 62.6 °F - 39.2 °F 42% 30.04 in 10.0 mi North 6.9 mph 16.1 mph N/A   Clear
3:53 PM 62.6 °F - 39.2 °F 42% 30.03 in 10.0 mi NNW 11.5 mph - N/A   Clear
4:12 PM 62.6 °F - 39.2 °F 42% 30.03 in 10.0 mi NW 3.5 mph - N/A   Clear
4:32 PM 62.6 °F - 42.8 °F 48% 30.03 in 10.0 mi NNW 6.9 mph - N/A   Clear
4:53 PM 64.4 °F - 41.0 °F 42% 30.02 in 10.0 mi West 9.2 mph - N/A   Clear
5:12 PM 62.6 °F - 39.2 °F 42% 30.02 in 10.0 mi Calm Calm - N/A   Clear
5:32 PM 62.6 °F - 42.8 °F 48% 30.02 in 10.0 mi NNW 6.9 mph - N/A   Clear
5:53 PM 62.6 °F - 41.0 °F 45% 30.02 in 10.0 mi WNW 6.9 mph - N/A   Clear
6:12 PM 62.6 °F - 39.2 °F 42% 30.01 in 10.0 mi West 5.8 mph - N/A   Clear
6:32 PM 62.6 °F - 41.0 °F 45% 30.01 in 10.0 mi WNW 5.8 mph - N/A   Clear
6:53 PM 62.6 °F - 39.2 °F 42% 30.01 in 10.0 mi West 3.5 mph - N/A   Clear
7:12 PM 62.6 °F - 41.0 °F 45% 30.01 in 10.0 mi WNW 5.8 mph - N/A   Clear
7:33 PM 62.6 °F - 42.8 °F 48% 30.01 in 10.0 mi WNW 5.8 mph - N/A   Clear
7:52 PM 60.8 °F - 41.0 °F 48% 30.01 in 10.0 mi West 4.6 mph - N/A   Clear
8:12 PM 59.0 °F - 42.8 °F 55% 30.01 in 10.0 mi West 3.5 mph - N/A   Clear
8:33 PM 57.2 °F - 42.8 °F 59% 30.01 in 10.0 mi Calm Calm - N/A   Clear
8:52 PM 55.4 °F - 42.8 °F 63% 30.01 in 10.0 mi WSW 3.5 mph - N/A   Clear
9:12 PM 55.4 °F - 42.8 °F 63% 30.01 in 10.0 mi Calm Calm - N/A   Clear
9:33 PM 55.4 °F - 44.6 °F 67% 30.02 in 10.0 mi SW 3.5 mph - N/A   Clear
9:52 PM 55.4 °F - 44.6 °F 67% 30.02 in 10.0 mi WSW 3.5 mph - N/A   Clear
10:12 PM 53.6 °F - 44.6 °F 72% 30.03 in 10.0 mi WSW 3.5 mph - N/A   Clear
10:33 PM 51.8 °F - 44.6 °F 76% 30.03 in 10.0 mi WSW 3.5 mph - N/A   Clear
10:52 PM 50.0 °F - 44.6 °F 82% 30.03 in 10.0 mi Calm Calm - N/A   Clear
11:12 PM 48.2 °F - 44.6 °F 87% 30.03 in 10.0 mi Calm Calm - N/A   Clear
11:33 PM 48.2 °F - 46.4 °F 93% 30.03 in 10.0 mi Calm Calm - N/A   Clear
11:52 PM 48.2 °F - 44.6 °F 87% 30.03 in 10.0 mi Calm Calm - N/A   Clear